Regional Weather Roundup
Issued by NWS San Angelo, TX

Home | Current Version | Previous Version | Text Only | Print | Product List | Glossary On
Versions: 1 2 3 4 5 6 7 8 9 10 11 12 13 14 15 16 17 18 19 20 21 22 23 24 25 26 27 28 29 30 31 32 33 34 35 36 37 38 39 40 41 42 43 44 45 46 47 48 49 50
427
ASUS44 KSJT 270610
RWRSJT
WEST CENTRAL TEXAS REGIONAL WEATHER ROUNDUP
NATIONAL WEATHER SERVICE SAN ANGELO TX
1200 AM CST MON FEB 27 2017

NOTE: "FAIR" INDICATES FEW OR NO CLOUDS BELOW 12,000 FEET WITH NO
SIGNIFICANT WEATHER AND/OR OBSTRUCTIONS TO VISIBILITY.

TXZ049-054-064>066-071>073-076>078-098-099-113-114-127-128-139-140-
154-155-168>170-270700
...LOCATIONS ACROSS WEST CENTRAL TEXAS...

CITY           SKY/WX    TMP DP  RH WIND       PRES   REMARKS
SAN ANGELO     CLOUDY    55  51  86 S6        29.89S
ABILENE        CLEAR     49  42  77 NW6       29.90R
DYESS AFB      CLEAR     46  37  69 W5        29.89R
JUNCTION       CLOUDY    51  50  96 CALM      29.90S
SWEETWATER     CLEAR     55  28  36 E3        29.92F
BROWNWOOD      CLEAR     55  55 100 CALM      29.90R FOG
COLEMAN        CLEAR     55  53  93 S6        29.90R
SONORA         PTCLDY    54  52  94 CALM      29.94S
OZONA          FAIR      50  43  76 MISG      29.95R
BRADY          NOT AVBL
$$

TEXAS PANHANDLE/OKLAHOMA PANHANDLE

CITY           SKY/WX    TMP DP  RH WIND       PRES   REMARKS
AMARILLO       CLEAR     37  20  50 SW8       29.87S WCI  31
BORGER         CLEAR     41  22  46 S6        29.86S WCI  37
CANADIAN       CLEAR     38  30  72 CALM      29.89F
DALHART        CLEAR     31  11  43 W12       29.84F WCI  22
DUMAS          CLEAR     36  13  38 SW9       29.83F WCI  29
GUYMON         NOT AVBL
HEREFORD       CLEAR     38  24  55 W7        29.89S WCI  33
PAMPA          CLEAR     40  31  71 W5        29.90R WCI  36
PERRYTON       CLEAR     37  26  64 SE12      29.86F WCI  29
$$

SOUTHERN PANHANDLE/SOUTH PLAINS/ROLLING PLAINS

CITY           SKY/WX    TMP DP  RH WIND       PRES   REMARKS
LUBBOCK        PTCLDY    47  21  35 NW3       29.90S
SNYDER         MOCLDY    58  28  31 E7        29.91S
CHILDRESS      CLEAR     44  34  67 SE8       29.91R WCI  39
SEMINOLE       MOCLDY    49  21  33 CALM      29.93S
$$

PERMIAN BASIN

CITY           SKY/WX    TMP DP  RH WIND       PRES   REMARKS
MIDLAND        MOCLDY    58  24  27 NW6       29.92R
ODESSA         MOCLDY    55  23  28 CALM      29.92S
WINK           CLOUDY    53  23  31 SE3       29.90S
$$

FAR WEST/SOUTHWEST MOUNTAINS/TRANS PECOS

CITY           SKY/WX    TMP DP  RH WIND       PRES   REMARKS
ALPINE         PTCLDY    50  14  23 W3        30.04R
DRYDEN           N/A     58  47  66 N8        29.89R
EL PASO        PTCLDY    51  14  22 CALM      29.94S
FORT STOCKTON  CLOUDY    56  38  50 S9        29.92S
GUADALUPE PASS CLOUDY    52  17  25 W31G43      N/A
MARFA          CLOUDY    42  13  30 NE5       30.01R WCI  39
PECOS          MOCLDY    51  21  31 W6        29.92R
$$

DALLAS/FORT WORTH METROPLEX

CITY           SKY/WX    TMP DP  RH WIND       PRES   REMARKS
DFW AIRPORT    CLOUDY    60  56  86 E3        29.89F
FTW MEACHAM    CLOUDY    60  53  77 E6        29.89F
DAL-EXECUTIVE  CLOUDY    59  55  87 E6        29.90F
GRAND PRAIRIE  CLOUDY    59  52  78 CALM      29.92S
ADDISON        CLOUDY    58  54  84 E6        29.94S
MESQUITE       CLOUDY    58  55  89 E5        29.93S
LANCASTER      CLOUDY    57  54  91 CALM      29.92F
$$

NORTH CENTRAL TEXAS

CITY           SKY/WX    TMP DP  RH WIND       PRES   REMARKS
SHRMAN/DENISON PTCLDY    53  50  89 E5        29.93F
GAINESVILLE    CLOUDY    52  49  91 E6        29.93F
BRIDGEPORT     CLOUDY    54  54 100 CALM      29.92S
DENTON         CLOUDY    58  55  90 NE3       29.91F
WAXAHACHIE     PTCLDY    57  56  97 E3        29.92F
GRANBURY       MOCLDY    57  55  92 CALM      29.91S
$$

WESTERN NORTH TEXAS

CITY           SKY/WX    TMP DP  RH WIND       PRES   REMARKS
WICHITA FALLS  PTCLDY    44  40  85 N8        29.90F WCI  39
VERNON         CLEAR     45  33  63 E8        29.91F
BRECKENRIDGE   CLEAR     55  53  95 E7        29.89S
COMANCHE       CLOUDY    54  54 100 SE6       29.91R FOG
$$

CENTRAL AND SOUTH CENTRAL TEXAS

CITY           SKY/WX    TMP DP  RH WIND       PRES   REMARKS
AUSTIN/BERGSTM CLOUDY    67  64  90 E3        29.89F
WACO           CLOUDY    64  60  87 SE9       29.91S
HILLSBORO      CLEAR     62  59  89 SE10      29.91F
TEMPLE         CLOUDY    64  62  93 SE6       29.91S
KILLEEN-GRAY   CLOUDY    63  62  96 SE6       29.90S
FORT HOOD      CLOUDY    63  61  95 S7        29.89R
GEORGETOWN     CLOUDY    64  61  88 CALM      29.90S
LAGO VISTA     CLOUDY    66  64  95 SE6       29.91F
SAN MARCOS     CLOUDY    66  64  94 S9        29.89F
NEW BRAUNFELS  CLOUDY    67  64  90 S8        29.87F
RANDOLPH AFB   CLOUDY    67  67 100 SE9       29.88R
SAN ANTONIO    CLOUDY    68  64  87 SE13      29.88S
STINSON        CLOUDY    69  64  84 SE8       29.85S
PLEASANTON     NOT AVBL
LA GRANGE      CLOUDY    70  67  92 S7        29.89F
GIDDINGS       CLOUDY   N/A N/A N/A S6        29.91F
$$

EAST TEXAS

CITY           SKY/WX    TMP DP  RH WIND       PRES   REMARKS
PARIS          CLOUDY    50  46  87 E12       29.94F
CLARKSVILLE    NOT AVBL
TYLER          CLOUDY    64  59  83 S6        29.94S
LONGVIEW       CLOUDY    65  60  84 SW12      29.95R
PALESTINE      MOCLDY    64  60  87 SE5       29.95S
NACOGDOCHES    CLOUDY    64  57  77 S10       29.95S
$$

TEXAS HILL COUNTRY AND EDWARDS PLATEAU

CITY           SKY/WX    TMP DP  RH WIND       PRES   REMARKS
LLANO          CLOUDY    64  61  88 CALM      29.93S
HORSESHOE BAY    N/A     66  63  91 CALM      29.89F
KERRVILLE      CLOUDY    58  57  96 CALM      29.89S
FREDERICKSBRG  CLOUDY    62  60  94 CALM      29.90R
ROCKSPRINGS    CLEAR     55  54  94 E5        29.91S
HONDO          CLOUDY    68  64  87 SE9       29.87R
UVALDE         CLEAR     59  58  94 CALM      29.87R
DEL RIO        CLEAR     56  54  93 CALM      29.85R
$$

SOUTHEAST TEXAS

CITY           SKY/WX    TMP DP  RH WIND       PRES   REMARKS
COLLEGE STN    CLOUDY    67  63  87 SE12      29.92F
CALDWELL       NOT AVBL
CROCKETT       CLOUDY    64  59  82 SE7       29.98F
BRENHAM        CLOUDY    67  65  93 SE7       29.92F
HUNTSVILLE     CLOUDY    66  61  84 S9G17     29.95R
CONROE         CLOUDY    66  63  90 SE8       29.95S
HOUSTON BUSH   CLOUDY    68  65  90 S10       29.94F
HOUSTON HOBBY  MOCLDY    68  66  93 SE12      29.93F
PERLAND        CLOUDY    71  66  84 SE9       29.96F
WHARTON        CLOUDY    68  65  91 SE12      29.92F
$$

THE UPPER TEXAS COAST

CITY           SKY/WX    TMP DP  RH WIND       PRES   REMARKS
ORANGE         CLOUDY    67  64  92 SE10G16   29.99F
PORT ARTHUR    CLOUDY    67  63  87 SE14      29.97F
GALVESTON      CLOUDY    69  67  93 SE12      29.96F
ANGLETON       CLOUDY    71  68  90 S12       29.95F
BAY CITY       CLOUDY    70  69  96 SE10      29.93S
$$

TEXAS COASTAL BEND, RIO GRANDE PLAINS DEEP SOUTH TEXAS

CITY           SKY/WX    TMP DP  RH WIND       PRES   REMARKS
VICTORIA       CLOUDY    67  65  93 SE9       29.90F FOG
BEEVILLE       FAIR      68  68 100 S12       29.87F
ROCKPORT       CLEAR     69  67  93 SE10      29.88F FOG
PORT ARANSAS   CLEAR     67  66  97 SE7       29.89S FOG
PORT LAVACA    CLEAR     66  66 100 CALM      29.92F FOG
CORPUS CHRISTI CLEAR     69  67  93 S15       29.87F
KINGSVILLE NAS CLEAR     69  69 100 SE10      29.87S
COTULLA        CLEAR     71  63  75 SE10      29.82F
LAREDO         CLEAR     71  64  78 SE17      29.83S
BROWNSVILLE    PTCLDY    70  68  93 SE8       29.91R
PORT ISABEL    CLEAR     71  68  90 S8        29.90S
HEBBRONVILLE   CLEAR     67  64  88 S9        29.87S
MCALLEN        CLEAR     73  67  81 SE12      29.88F
WESLACO        CLOUDY    69  66  92 S8        29.88F
FALFURRIAS     CLEAR    N/A N/A N/A SE8       29.87S
EDINBURG       CLEAR     71  67  85 SE8       29.88F
$$




USA.gov is the U.S. government's official web portal to all federal, state and local government web resources and services.